sat.trackr.live / text

‹ back to catalog

STARLINK-1154

NORAD 45198 · 2020-012W

PAYLOAD ACTIVE UNKNOWN

§ Identity

Operator
Country
US
Launch date
2020-02-17
Launch site
AFETR
Launch vehicle
Mass (kg)
RCS (m²)

Purposes: comms

External: N2YO · Heavens-Above · Gunter

§ Orbital elements

Epoch: 2026-09-20T04:34:19.187040Z

Period
91.57 min
Inclination
53.0370°
Eccentricity
0.0001320
Mean motion
15.72581044 rev/d
Perigee alt
350.6 km
Apogee alt
352.4 km
Semi-major
6,729.7 km
B*
2.9001e-4
RAAN
140.2153°
Arg perigee
65.1051°
Mean anomaly
295.0104°
Rev number
36,568

§ Raw data

STARLINK-11541 45198U 20012W   26263.19049985  .00039217  00000+0  29001-3 0  99922 45198  53.0370 140.2153 0001320  65.1051 295.0104 15.72581044365683

JSON: /api/v1/satellites/45198 · /tle

For live sub-satellite position, see the globe view (requires WebGL).

§ Visibility from observer

Set your observer location to see the next 7 days of passes ≥ 10°. The values pass through the URL so the page stays shareable.

No JS? Fill the form by hand. The geolocation button needs JavaScript.